STARLINK-2525 (48482 NORAD) Tracking and Keplerian Element Data

This shows tracking and keplerian element data for the satellite.

Feedback or suggestion? Click here.




ElementValue
Catalog48482
NameSTARLINK-2525
Epoch Orbit1252
Epoch Day210.67347803
Epoch Year2021
RAAN201.449
Inclination53.0543
Eccentricity0.0001473
Argument of Perigee71.5677
Mean Anonmoly288.5471
Mean Motion15.06388126
Decay Rate6.09E-06
L11 48482U 21040BG 21210.67347803 .00000609 00000-0 59816-4 0 9995
L22 48482 53.0543 201.4490 0001473 71.5677 288.5471 15.06388126 12521

Live tracking and technical data element details for STARLINK-2525 (NORAD 48482). STARLINK-2525 can be tracked NOW for your location showing map with azimuth and elevation plus other details from your city location.

Track the satellite on the map from your city or location and see movement details for azimuth, elevation, latitude, longitude, range, height, and movement on the map or in text.







IsCatalogInMostPopularTable: catalog: 48482, numindb: 32
Update: records affected: 1



GetName: 48482 STARLINK-2525

Hit Count: updated at: Sat, 31 Jul 2021 14:37:11 GMT